PRAETORIAN SDA_601

Last updated on Sun Jun 21 2026 00:03:46 GMT+0000 (Coordinated Universal Time)

1 65585U 25203W 26170.95230967 .00000504 00000+0 44903-3 0 9999 2 65585 81.3041 8.4633 0005507 187.7583 172.3489 13.83168348 39065
UTC large
Height (km)
Speed (km/s)
/
Latitude / Longitude
Inclination (degrees)
Orbital Period (minutes)
Azimuth
Elevation
Range (km)
Doppler Factor

Next 0 passes for location: London (51.5072 / 0.1276)

No passes found over London.
PRAETORIAN SDA_601